QPF
0.00 0.00 0.00 0.00 0.01 0.01 0.02 0.02 0.01 0.02 0.04 0.05 0.05 0.06 0.06 0.07 0.08 0.10 0.10 0.11 0.13 0.14 0.15 0.13 0.21 0.27 0.27 0.27 0.24 0.19 0.16 0.14 0.12 0.07 0.03 0.01 0.00 0.00 0.00 0.00 0.00 0.00 0.00
0.00 0.00 0.01 0.01 0.01 0.02 0.04 0.03 0.04 0.07 0.09 0.13 0.16 0.15 0.15 0.15 0.16 0.17 0.15 0.17 0.18 0.20 0.20 0.24 0.30 0.33 0.34 0.32 0.27 0.21 0.18 0.15 0.12 0.09 0.05 0.02 0.01 0.00 0.00 0.00 0.00 0.00 0.00
0.00 0.01 0.01 0.01 0.02 0.03 0.05 0.06 0.05 0.08 0.11 0.16 0.19 0.18 0.17 0.17 0.18 0.20 0.19 0.21 0.24 0.27 0.30 0.31 0.33 0.33 0.30 0.28 0.25 0.21 0.18 0.14 0.12 0.09 0.07 0.04 0.02 0.01 0.00 0.00 0.00 0.01 0.02
0.01 0.01 0.03 0.03 0.04 0.05 0.05 0.05 0.05 0.07 0.09 0.14 0.18 0.23 0.26 0.26 0.27 0.31 0.29 0.30 0.30 0.30 0.33 0.32 0.33 0.34 0.32 0.28 0.24 0.20 0.17 0.14 0.11 0.09 0.07 0.06 0.06 0.04 0.02 0.00 0.01 0.02 0.02
0.00 0.01 0.02 0.03 0.04 0.05 0.05 0.06 0.06 0.08 0.10 0.13 0.17 0.27 0.33 0.35 0.39 0.39 0.39 0.37 0.35 0.34 0.33 0.34 0.40 0.41 0.37 0.33 0.31 0.24 0.17 0.13 0.10 0.09 0.07 0.07 0.09 0.09 0.07 0.03 0.03 0.03 0.03
0.00 0.00 0.00 0.01 0.03 0.04 0.05 0.07 0.07 0.07 0.09 0.12 0.17 0.24 0.31 0.38 0.41 0.39 0.39 0.42 0.39 0.36 0.35 0.35 0.38 0.39 0.35 0.28 0.23 0.19 0.15 0.10 0.08 0.07 0.06 0.06 0.07 0.09 0.10 0.06 0.04 0.04 0.03
0.00 0.00 0.00 0.00 0.01 0.02 0.02 0.04 0.05 0.05 0.08 0.12 0.14 0.20 0.29 0.34 0.35 0.34 0.36 0.37 0.37 0.37 0.39 0.40 0.35 0.35 0.32 0.27 0.23 0.18 0.12 0.08 0.06 0.05 0.05 0.05 0.05 0.06 0.07 0.06 0.04 0.02 0.01
0.00 0.00 0.00 0.00 0.00 0.01 0.02 0.03 0.04 0.05 0.06 0.08 0.10 0.15 0.22 0.30 0.32 0.34 0.36 0.39 0.42 0.45 0.45 0.38 0.36 0.35 0.32 0.27 0.19 0.15 0.10 0.06 0.04 0.03 0.03 0.03 0.03 0.03 0.04 0.04 0.04 0.02 0.01
0.00 0.00 0.00 0.00 0.00 0.01 0.01 0.02 0.04 0.05 0.07 0.08 0.10 0.13 0.18 0.26 0.29 0.33 0.38 0.45 0.50 0.54 0.53 0.46 0.41 0.34 0.29 0.22 0.15 0.10 0.06 0.04 0.03 0.02 0.02 0.02 0.02 0.03 0.03 0.03 0.04 0.03 0.02
0.00 0.00 0.00 0.00 0.01 0.02 0.03 0.03 0.05 0.06 0.06 0.09 0.11 0.13 0.19 0.25 0.30 0.34 0.39 0.47 0.55 0.58 0.52 0.45 0.39 0.28 0.20 0.14 0.09 0.06 0.04 0.02 0.02 0.02 0.02 0.02 0.01 0.01 0.01 0.01 0.02 0.04 0.04
0.00 0.00 0.00 0.01 0.02 0.03 0.04 0.04 0.05 0.06 0.08 0.11 0.16 0.20 0.24 0.29 0.33 0.39 0.42 0.45 0.50 0.52 0.48 0.38 0.27 0.17 0.10 0.07 0.05 0.03 0.02 0.01 0.01 0.01 0.01 0.01 0.01 0.01 0.01 0.01 0.01 0.01 0.02
0.00 0.00 0.01 0.02 0.03 0.06 0.06 0.06 0.09 0.08 0.08 0.11 0.20 0.28 0.34 0.39 0.41 0.42 0.40 0.36 0.37 0.36 0.29 0.23 0.17 0.11 0.07 0.04 0.02 0.01 0.01 0.01 0.01 0.01 0.01 0.00 0.00 0.01 0.01 0.01 0.01 0.01 0.01
0.00 0.00 0.01 0.03 0.04 0.05 0.07 0.08 0.08 0.09 0.12 0.16 0.25 0.36 0.40 0.41 0.42 0.43 0.41 0.35 0.29 0.25 0.20 0.14 0.10 0.07 0.05 0.03 0.02 0.01 0.01 0.00 0.00 0.00 0.00 0.00 0.01 0.01 0.01 0.01 0.01 0.01 0.01
0.00 0.00 0.01 0.02 0.03 0.04 0.06 0.06 0.06 0.08 0.13 0.20 0.31 0.45 0.53 0.54 0.50 0.43 0.38 0.30 0.22 0.16 0.12 0.09 0.06 0.04 0.02 0.02 0.01 0.01 0.00 0.00 0.00 0.00 0.00 0.00 0.00 0.00 0.00 0.00 0.00 0.00 0.00
0.00 0.00 0.01 0.01 0.03 0.03 0.02 0.03 0.06 0.08 0.12 0.23 0.39 0.50 0.51 0.48 0.46 0.40 0.32 0.24 0.16 0.11 0.06 0.04 0.03 0.02 0.01 0.01 0.00 0.00 0.00 0.00 0.00 0.00 0.00 0.00 0.00 0.00 0.00 0.00 0.00 0.00 0.00
0.00 0.00 0.00 0.01 0.02 0.02 0.01 0.02 0.03 0.07 0.11 0.18 0.25 0.30 0.36 0.41 0.36 0.32 0.24 0.16 0.12 0.09 0.05 0.02 0.01 0.01 0.00 0.00 0.00 0.00 0.00 0.00 0.00 0.00 0.00 0.00 0.00 0.00 0.00 0.00 0.00 0.00 0.00
0.00 0.00 0.00 0.00 0.01 0.01 0.01 0.01 0.03 0.05 0.09 0.13 0.15 0.19 0.24 0.28 0.24 0.18 0.15 0.11 0.07 0.05 0.03 0.01 0.01 0.00 0.00 0.00 0.00 0.00 0.00 0.00 0.00 0.00 0.00 0.00 0.00 0.00 0.00 0.00 0.00 0.00 0.00
0.00 0.00 0.00 0.00 0.00 0.00 0.00 0.01 0.02 0.04 0.07 0.11 0.13 0.14 0.19 0.21 0.17 0.12 0.10 0.08 0.05 0.03 0.02 0.01 0.00 0.00 0.00 0.00 0.00 0.00 0.00 0.00 0.00 0.00 0.00 0.00 0.00 0.00 0.00 0.00 0.00 0.00 0.00
0.00 0.00 0.00 0.00 0.00 0.00 0.00 0.01 0.02 0.03 0.05 0.08 0.10 0.12 0.13 0.13 0.10 0.08 0.06 0.05 0.04 0.02 0.01 0.01 0.00 0.00 0.00 0.00 0.00 0.00 0.00 0.00 0.00 0.00 0.00 0.00 0.00 0.00 0.00 0.00 0.01 0.01 0.00
0.00 0.00 0.00 0.00 0.00 0.00 0.00 0.01 0.01 0.03 0.04 0.05 0.07 0.10 0.10 0.09 0.07 0.05 0.04 0.04 0.03 0.02 0.01 0.01 0.00 0.00 0.00 0.00 0.00 0.00 0.00 0.00 0.00 0.00 0.00 0.00 0.00 0.00 0.00 0.00 0.00 0.01 0.01
0.00 0.00 0.00 0.00 0.00 0.00 0.00 0.01 0.01 0.02 0.03 0.04 0.06 0.05 0.07 0.07 0.06 0.04 0.04 0.03 0.02 0.02 0.01 0.01 0.00 0.00 0.00 0.00 0.00 0.00 0.00 0.00 0.00 0.00 0.00 0.00 0.00 0.00 0.00 0.00 0.00 0.00 0.00
0.00 0.00 0.00 0.00 0.00 0.00 0.00 0.01 0.01 0.01 0.02 0.04 0.05 0.05 0.05 0.03 0.03 0.04 0.03 0.02 0.02 0.02 0.01 0.01 0.00 0.00 0.00 0.00 0.00 0.00 0.00 0.00 0.00 0.00 0.00 0.00 0.00 0.00 0.00 0.00 0.00 0.00 0.00
0.00 0.00 0.00 0.00 0.00 0.00 0.00 0.01 0.01 0.01 0.02 0.04 0.06 0.06 0.04 0.03 0.03 0.04 0.03 0.02 0.02 0.01 0.01 0.01 0.00 0.00 0.00 0.00 0.00 0.00 0.00 0.00 0.00 0.00 0.00 0.00 0.00 0.00 0.00 0.00 0.00 0.00 0.00
0.00 0.00 0.00 0.00 0.00 0.00 0.00 0.00 0.01 0.01 0.02 0.04 0.05 0.04 0.04 0.03 0.03 0.04 0.03 0.02 0.01 0.01 0.01 0.01 0.00 0.00 0.00 0.00 0.00 0.00 0.00 0.00 0.00 0.00 0.00 0.00 0.00 0.00 0.00 0.00 0.00 0.00 0.00
0.00 0.00 0.00 0.00 0.00 0.00 0.00 0.00 0.00 0.01 0.02 0.04 0.04 0.03 0.03 0.03 0.02 0.03 0.03 0.02 0.01 0.01 0.01 0.01 0.01 0.00 0.00 0.00 0.00 0.00 0.00 0.00 0.00 0.00 0.00 0.00 0.00 0.00 0.00 0.00 0.00 0.00 0.00
0.00 0.00 0.00 0.00 0.00 0.00 0.00 0.00 0.00 0.00 0.02 0.03 0.04 0.03 0.03 0.02 0.02 0.01 0.01 0.00 0.00 0.00 0.00 0.00 0.00 0.00 0.00 0.00 0.00 0.00 0.00 0.00 0.00 0.00 0.00 0.00 0.00 0.00 0.00 0.00 0.00 0.00 0.00
MSLP
1009.99 1009.86 1009.76 1009.71 1009.72 1009.81 1009.97 1010.20 1010.47 1010.75 1010.99 1011.18 1011.29 1011.31 1011.27 1011.19 1011.11 1011.06 1011.07 1011.17 1011.34 1011.58 1011.87 1012.19 1012.51 1012.83 1013.12 1013.40 1013.65 1013.85 1014.01 1014.09 1014.08 1013.97 1013.74 1013.41 1013.00 1012.53 1012.06 1011.62 1011.25 1010.98 1010.80
1010.51 1010.36 1010.22 1010.10 1010.03 1010.02 1010.08 1010.20 1010.37 1010.56 1010.73 1010.85 1010.89 1010.86 1010.77 1010.65 1010.53 1010.47 1010.48 1010.58 1010.78 1011.05 1011.38 1011.74 1012.10 1012.44 1012.75 1013.04 1013.28 1013.48 1013.64 1013.74 1013.77 1013.70 1013.53 1013.26 1012.90 1012.48 1012.03 1011.58 1011.18 1010.85 1010.61
1010.97 1010.84 1010.68 1010.52 1010.38 1010.28 1010.24 1010.26 1010.32 1010.41 1010.49 1010.52 1010.49 1010.40 1010.25 1010.09 1009.94 1009.86 1009.87 1009.99 1010.22 1010.53 1010.90 1011.30 1011.68 1012.04 1012.35 1012.62 1012.84 1013.03 1013.18 1013.29 1013.35 1013.33 1013.24 1013.06 1012.78 1012.44 1012.04 1011.62 1011.21 1010.85 1010.55
1011.32 1011.22 1011.08 1010.90 1010.71 1010.54 1010.41 1010.33 1010.29 1010.27 1010.25 1010.19 1010.08 1009.91 1009.71 1009.50 1009.33 1009.23 1009.25 1009.39 1009.64 1010.00 1010.41 1010.84 1011.26 1011.62 1011.93 1012.18 1012.37 1012.53 1012.67 1012.78 1012.87 1012.92 1012.91 1012.82 1012.66 1012.41 1012.09 1011.73 1011.34 1010.96 1010.61
1011.51 1011.46 1011.35 1011.17 1010.96 1010.74 1010.54 1010.37 1010.23 1010.12 1009.99 1009.84 1009.65 1009.41 1009.15 1008.89 1008.69 1008.58 1008.60 1008.76 1009.05 1009.45 1009.90 1010.38 1010.82 1011.20 1011.50 1011.73 1011.91 1012.05 1012.17 1012.28 1012.40 1012.50 1012.57 1012.59 1012.53 1012.40 1012.17 1011.88 1011.52 1011.14 1010.76
1011.57 1011.57 1011.48 1011.32 1011.10 1010.86 1010.60 1010.37 1010.15 1009.95 1009.73 1009.49 1009.22 1008.91 1008.59 1008.29 1008.06 1007.94 1007.97 1008.14 1008.46 1008.89 1009.39 1009.90 1010.37 1010.77 1011.09 1011.32 1011.48 1011.60 1011.71 1011.83 1011.96 1012.11 1012.25 1012.36 1012.41 1012.38 1012.25 1012.03 1011.72 1011.34 1010.94
1011.52 1011.54 1011.49 1011.35 1011.14 1010.89 1010.61 1010.33 1010.06 1009.78 1009.50 1009.18 1008.84 1008.47 1008.10 1007.76 1007.51 1007.37 1007.40 1007.58 1007.92 1008.38 1008.91 1009.45 1009.95 1010.38 1010.71 1010.94 1011.10 1011.22 1011.32 1011.44 1011.59 1011.77 1011.96 1012.14 1012.28 1012.33 1012.29 1012.13 1011.87 1011.51 1011.10
1011.37 1011.41 1011.39 1011.28 1011.09 1010.85 1010.57 1010.27 1009.97 1009.65 1009.32 1008.96 1008.57 1008.16 1007.75 1007.39 1007.11 1006.96 1006.98 1007.16 1007.51 1007.98 1008.52 1009.08 1009.61 1010.06 1010.40 1010.64 1010.81 1010.92 1011.02 1011.13 1011.29 1011.48 1011.70 1011.93 1012.12 1012.24 1012.25 1012.15 1011.94 1011.61 1011.20
1011.16 1011.21 1011.21 1011.13 1010.98 1010.77 1010.51 1010.22 1009.92 1009.59 1009.24 1008.86 1008.45 1008.03 1007.61 1007.24 1006.96 1006.81 1006.81 1006.99 1007.32 1007.78 1008.32 1008.88 1009.41 1009.86 1010.21 1010.46 1010.62 1010.73 1010.82 1010.93 1011.07 1011.26 1011.49 1011.72 1011.94 1012.09 1012.15 1012.10 1011.92 1011.62 1011.23
1010.90 1010.96 1010.98 1010.93 1010.83 1010.66 1010.44 1010.19 1009.91 1009.61 1009.28 1008.92 1008.53 1008.13 1007.74 1007.39 1007.12 1006.97 1006.98 1007.13 1007.44 1007.87 1008.38 1008.90 1009.40 1009.83 1010.17 1010.41 1010.56 1010.66 1010.74 1010.83 1010.95 1011.12 1011.33 1011.55 1011.77 1011.93 1012.01 1011.99 1011.84 1011.57 1011.21
1010.61 1010.67 1010.72 1010.71 1010.65 1010.54 1010.38 1010.18 1009.95 1009.70 1009.42 1009.12 1008.79 1008.45 1008.12 1007.82 1007.60 1007.48 1007.49 1007.64 1007.91 1008.29 1008.74 1009.20 1009.64 1010.02 1010.32 1010.53 1010.65 1010.73 1010.79 1010.85 1010.95 1011.09 1011.27 1011.47 1011.66 1011.82 1011.90 1011.89 1011.76 1011.53 1011.19
1010.30 1010.38 1010.45 1010.48 1010.47 1010.41 1010.31 1010.17 1010.01 1009.82 1009.62 1009.40 1009.16 1008.92 1008.68 1008.48 1008.33 1008.27 1008.30 1008.44 1008.68 1009.00 1009.37 1009.76 1010.11 1010.41 1010.64 1010.80 1010.89 1010.93 1010.97 1011.00 1011.07 1011.18 1011.33 1011.50 1011.66 1011.80 1011.88 1011.87 1011.76 1011.55 1011.25
1009.99 1010.09 1010.18 1010.25 1010.29 1010.27 1010.22 1010.14 1010.04 1009.93 1009.81 1009.68 1009.55 1009.42 1009.31 1009.22 1009.18 1009.19 1009.27 1009.43 1009.64 1009.90 1010.19 1010.48 1010.74 1010.94 1011.10 1011.19 1011.23 1011.24 1011.25 1011.27 1011.32 1011.41 1011.53 1011.68 1011.82 1011.93 1011.99 1011.98 1011.88 1011.69 1011.41
1009.69 1009.81 1009.94 1010.04 1010.10 1010.12 1010.11 1010.07 1010.02 1009.97 1009.92 1009.88 1009.86 1009.85 1009.87 1009.91 1009.99 1010.10 1010.24 1010.42 1010.63 1010.85 1011.06 1011.26 1011.42 1011.53 1011.60 1011.63 1011.63 1011.62 1011.61 1011.63 1011.68 1011.76 1011.87 1012.00 1012.12 1012.22 1012.27 1012.25 1012.15 1011.96 1011.69
1009.40 1009.55 1009.70 1009.83 1009.91 1009.96 1009.97 1009.95 1009.93 1009.91 1009.92 1009.95 1010.01 1010.11 1010.25 1010.42 1010.61 1010.82 1011.04 1011.27 1011.48 1011.68 1011.84 1011.96 1012.04 1012.07 1012.07 1012.05 1012.02 1011.99 1011.99 1012.02 1012.08 1012.18 1012.30 1012.43 1012.55 1012.63 1012.67 1012.64 1012.53 1012.34 1012.07
1009.11 1009.30 1009.48 1009.62 1009.73 1009.78 1009.80 1009.78 1009.77 1009.76 1009.79 1009.86 1009.98 1010.15 1010.38 1010.65 1010.94 1011.25 1011.55 1011.82 1012.06 1012.26 1012.39 1012.47 1012.49 1012.48 1012.44 1012.39 1012.35 1012.33 1012.35 1012.40 1012.50 1012.63 1012.77 1012.91 1013.03 1013.10 1013.12 1013.08 1012.95 1012.75 1012.47
1008.80 1009.03 1009.23 1009.40 1009.52 1009.58 1009.60 1009.58 1009.55 1009.54 1009.55 1009.63 1009.77 1009.98 1010.26 1010.59 1010.96 1011.34 1011.71 1012.03 1012.31 1012.52 1012.66 1012.72 1012.73 1012.70 1012.66 1012.61 1012.58 1012.59 1012.64 1012.74 1012.88 1013.04 1013.21 1013.36 1013.48 1013.55 1013.56 1013.49 1013.34 1013.12 1012.83
1008.42 1008.68 1008.92 1009.13 1009.27 1009.35 1009.38 1009.36 1009.32 1009.28 1009.28 1009.33 1009.46 1009.67 1009.96 1010.31 1010.71 1011.13 1011.54 1011.91 1012.23 1012.47 1012.64 1012.73 1012.76 1012.75 1012.73 1012.71 1012.72 1012.77 1012.87 1013.01 1013.19 1013.38 1013.57 1013.73 1013.85 1013.91 1013.90 1013.80 1013.63 1013.39 1013.08
1007.93 1008.22 1008.51 1008.76 1008.95 1009.07 1009.13 1009.13 1009.09 1009.04 1009.02 1009.05 1009.14 1009.32 1009.58 1009.92 1010.31 1010.74 1011.17 1011.57 1011.92 1012.21 1012.42 1012.56 1012.65 1012.69 1012.72 1012.76 1012.82 1012.92 1013.06 1013.23 1013.43 1013.64 1013.83 1013.99 1014.10 1014.14 1014.10 1013.98 1013.79 1013.53 1013.21
1007.30 1007.63 1007.96 1008.26 1008.52 1008.71 1008.82 1008.87 1008.87 1008.84 1008.82 1008.83 1008.89 1009.02 1009.24 1009.54 1009.90 1010.30 1010.72 1011.13 1011.51 1011.84 1012.12 1012.33 1012.48 1012.61 1012.71 1012.81 1012.93 1013.07 1013.24 1013.43 1013.64 1013.84 1014.01 1014.15 1014.22 1014.23 1014.17 1014.02 1013.81 1013.54 1013.21
1006.55 1006.89 1007.26 1007.63 1007.96 1008.23 1008.44 1008.58 1008.65 1008.68 1008.68 1008.70 1008.74 1008.85 1009.01 1009.26 1009.57 1009.93 1010.33 1010.74 1011.14 1011.51 1011.84 1012.13 1012.37 1012.58 1012.76 1012.93 1013.10 1013.28 1013.46 1013.65 1013.84 1014.00 1014.14 1014.23 1014.26 1014.23 1014.14 1013.97 1013.75 1013.48 1013.16
1005.72 1006.05 1006.44 1006.86 1007.26 1007.63 1007.95 1008.20 1008.38 1008.50 1008.58 1008.63 1008.70 1008.79 1008.92 1009.12 1009.38 1009.70 1010.06 1010.46 1010.87 1011.28 1011.67 1012.03 1012.36 1012.65 1012.92 1013.15 1013.37 1013.56 1013.74 1013.90 1014.04 1014.15 1014.23 1014.26 1014.25 1014.18 1014.06 1013.88 1013.67 1013.41 1013.12
1004.88 1005.18 1005.55 1005.99 1006.45 1006.91 1007.33 1007.71 1008.02 1008.26 1008.44 1008.57 1008.69 1008.80 1008.93 1009.10 1009.32 1009.60 1009.94 1010.32 1010.74 1011.18 1011.63 1012.06 1012.46 1012.84 1013.17 1013.46 1013.70 1013.90 1014.06 1014.18 1014.26 1014.30 1014.30 1014.27 1014.21 1014.11 1013.97 1013.80 1013.61 1013.38 1013.13
1004.15 1004.35 1004.67 1005.09 1005.56 1006.08 1006.59 1007.08 1007.52 1007.89 1008.19 1008.43 1008.63 1008.79 1008.95 1009.12 1009.33 1009.59 1009.91 1010.29 1010.72 1011.18 1011.67 1012.17 1012.64 1013.08 1013.46 1013.79 1014.05 1014.24 1014.37 1014.43 1014.44 1014.41 1014.35 1014.26 1014.15 1014.03 1013.90 1013.75 1013.59 1013.42 1013.22
1003.58 1003.66 1003.87 1004.22 1004.66 1005.18 1005.74 1006.31 1006.86 1007.35 1007.77 1008.13 1008.43 1008.67 1008.88 1009.08 1009.31 1009.57 1009.89 1010.27 1010.71 1011.21 1011.74 1012.28 1012.80 1013.29 1013.72 1014.07 1014.33 1014.51 1014.59 1014.60 1014.55 1014.46 1014.33 1014.20 1014.07 1013.95 1013.83 1013.73 1013.63 1013.52 1013.39
1003.24 1003.15 1003.22 1003.44 1003.80 1004.27 1004.83 1005.43 1006.04 1006.62 1007.15 1007.62 1008.01 1008.34 1008.62 1008.88 1009.14 1009.43 1009.77 1010.17 1010.63 1011.16 1011.72 1012.30 1012.86 1013.39 1013.84 1014.20 1014.46 1014.61 1014.66 1014.62 1014.52 1014.37 1014.21 1014.05 1013.92 1013.81 1013.74 1013.70 1013.67 1013.64 1013.59
Thickness
5802 5805 5805 5805 5803 5800 5797 5795 5792 5791 5786 5784 5781 5777 5776 5775 5774 5774 5772 5768 5764 5762 5759 5758 5756 5752 5749 5747 5746 5745 5743 5743 5743 5743 5746 5752 5757 5758 5757 5758 5757 5757 5755
5788 5789 5790 5791 5791 5789 5787 5786 5785 5785 5782 5780 5776 5774 5772 5771 5771 5770 5767 5764 5759 5756 5755 5752 5750 5747 5743 5741 5740 5739 5737 5738 5738 5735 5734 5737 5745 5748 5753 5751 5750 5750 5750
5771 5773 5774 5775 5777 5776 5777 5778 5778 5777 5777 5775 5771 5768 5765 5763 5763 5762 5761 5759 5755 5751 5748 5746 5743 5739 5737 5735 5734 5733 5730 5729 5732 5733 5729 5727 5729 5735 5743 5743 5743 5741 5741
5761 5760 5761 5762 5763 5764 5767 5767 5767 5767 5767 5766 5763 5760 5758 5757 5759 5756 5755 5752 5749 5745 5743 5739 5736 5732 5730 5729 5728 5727 5726 5725 5724 5726 5727 5726 5726 5721 5726 5734 5737 5736 5733
5750 5749 5750 5750 5752 5754 5756 5757 5757 5757 5757 5757 5756 5753 5753 5752 5752 5750 5747 5744 5742 5740 5737 5733 5730 5726 5724 5722 5721 5721 5720 5720 5719 5720 5721 5720 5719 5717 5714 5718 5722 5726 5729
5741 5740 5741 5741 5741 5744 5745 5745 5745 5745 5746 5747 5746 5744 5743 5741 5740 5740 5738 5736 5735 5733 5731 5727 5724 5720 5718 5717 5716 5715 5715 5715 5714 5714 5715 5714 5712 5711 5710 5710 5713 5715 5720
5733 5731 5731 5730 5731 5731 5732 5732 5732 5733 5735 5736 5736 5735 5734 5732 5731 5732 5731 5729 5728 5725 5722 5719 5717 5714 5712 5711 5710 5708 5709 5708 5707 5707 5709 5710 5709 5708 5706 5705 5707 5709 5715
5727 5724 5723 5722 5721 5721 5721 5720 5719 5720 5721 5723 5723 5724 5723 5723 5724 5724 5724 5723 5720 5717 5714 5710 5708 5707 5705 5703 5701 5701 5701 5700 5701 5702 5701 5702 5703 5702 5701 5699 5698 5700 5706
5720 5718 5717 5715 5713 5710 5709 5708 5707 5706 5707 5708 5709 5710 5711 5711 5712 5713 5713 5712 5710 5708 5704 5701 5699 5696 5695 5694 5692 5693 5693 5693 5694 5695 5695 5695 5695 5694 5694 5693 5692 5690 5691
5715 5713 5710 5707 5704 5702 5699 5697 5695 5693 5692 5692 5693 5696 5697 5699 5699 5700 5700 5699 5697 5695 5692 5690 5688 5685 5685 5684 5683 5684 5685 5685 5685 5686 5685 5684 5687 5686 5686 5686 5685 5685 5683
5709 5706 5703 5699 5695 5692 5688 5684 5682 5680 5678 5676 5677 5678 5680 5683 5685 5685 5684 5683 5682 5681 5679 5677 5675 5674 5674 5674 5674 5677 5676 5676 5676 5676 5676 5674 5674 5676 5678 5678 5677 5677 5676
5703 5700 5695 5691 5686 5682 5679 5675 5670 5666 5664 5662 5661 5662 5663 5665 5667 5668 5668 5668 5667 5666 5665 5663 5662 5662 5662 5663 5664 5666 5667 5667 5666 5666 5665 5664 5665 5664 5666 5666 5667 5668 5666
5696 5693 5688 5683 5678 5675 5670 5666 5662 5657 5653 5650 5649 5648 5648 5648 5650 5651 5651 5651 5651 5650 5648 5649 5648 5649 5650 5651 5654 5656 5656 5656 5656 5655 5654 5653 5654 5653 5654 5654 5656 5659 5661
5690 5686 5681 5676 5672 5667 5663 5659 5655 5650 5646 5642 5640 5637 5635 5634 5635 5636 5636 5635 5635 5635 5635 5635 5636 5637 5640 5641 5643 5645 5645 5645 5643 5642 5643 5643 5642 5641 5642 5644 5644 5646 5648
5685 5681 5676 5671 5667 5662 5658 5655 5650 5646 5641 5637 5634 5630 5628 5626 5625 5624 5623 5622 5622 5624 5624 5624 5625 5627 5629 5631 5632 5634 5634 5633 5632 5631 5631 5629 5627 5624 5626 5630 5631 5633 5635
5681 5678 5673 5668 5663 5659 5654 5651 5646 5642 5638 5633 5629 5626 5624 5621 5618 5616 5615 5614 5613 5614 5614 5615 5616 5617 5619 5616 5619 5623 5624 5623 5622 5621 5621 5621 5619 5616 5615 5614 5614 5615 5618
5678 5674 5670 5665 5660 5656 5651 5646 5642 5639 5634 5629 5625 5622 5619 5616 5612 5611 5608 5607 5606 5605 5605 5607 5608 5607 5605 5605 5608 5612 5615 5614 5612 5611 5612 5614 5610 5609 5611 5609 5607 5606 5603
5674 5671 5667 5663 5658 5654 5648 5643 5640 5636 5631 5628 5624 5619 5616 5613 5609 5606 5604 5602 5601 5600 5599 5600 5600 5599 5597 5596 5599 5602 5605 5605 5602 5602 5602 5601 5599 5596 5597 5601 5601 5599 5597
5672 5668 5664 5660 5655 5650 5646 5641 5637 5633 5630 5627 5623 5618 5615 5611 5607 5604 5600 5599 5597 5595 5594 5594 5594 5593 5589 5588 5590 5593 5597 5596 5594 5593 5591 5592 5590 5582 5584 5590 5589 5587 5586
5667 5663 5660 5655 5649 5645 5641 5636 5634 5631 5628 5625 5622 5618 5614 5610 5606 5602 5599 5596 5594 5592 5591 5589 5589 5588 5585 5581 5583 5586 5594 5591 5590 5586 5584 5577 5576 5572 5572 5578 5577 5574 5572
5662 5658 5654 5649 5645 5642 5637 5633 5631 5629 5627 5624 5620 5616 5613 5609 5605 5600 5597 5594 5592 5589 5588 5585 5584 5582 5579 5576 5577 5580 5589 5589 5587 5586 5582 5574 5566 5564 5563 5563 5563 5558 5556
5658 5654 5648 5645 5642 5638 5633 5629 5628 5627 5625 5621 5617 5614 5610 5608 5604 5599 5595 5592 5589 5585 5583 5581 5580 5578 5575 5573 5571 5572 5575 5577 5580 5578 5575 5567 5560 5557 5555 5555 5550 5549 5550
5655 5651 5646 5641 5638 5635 5631 5627 5626 5624 5621 5618 5614 5611 5608 5605 5602 5597 5594 5590 5587 5587 5585 5582 5581 5579 5575 5568 5565 5566 5567 5568 5572 5569 5560 5557 5555 5552 5552 5547 5546 5546 5547
5652 5648 5643 5639 5635 5632 5629 5626 5624 5621 5618 5614 5611 5608 5606 5603 5600 5597 5594 5592 5590 5589 5586 5584 5582 5579 5575 5573 5570 5569 5566 5562 5565 5564 5557 5552 5551 5549 5546 5545 5545 5543 5537
5647 5644 5640 5636 5634 5631 5627 5624 5622 5618 5614 5612 5609 5607 5605 5602 5598 5595 5593 5592 5591 5590 5585 5585 5584 5580 5576 5571 5566 5570 5569 5567 5564 5561 5561 5560 5557 5553 5549 5544 5539 5535 5532
5642 5639 5637 5635 5632 5629 5624 5622 5619 5615 5611 5608 5606 5605 5603 5600 5597 5593 5588 5578 5580 5576 5574 5574 5577 5575 5569 5561 5558 5556 5554 5553 5551 5555 5559 5556 5553 5549 5545 5540 5536 5531 5525